QPF
0.03 0.04 0.05 0.03 0.03 0.03 0.03 0.03 0.04 0.05 0.05 0.05 0.03 0.03 0.06 0.04 0.03 0.03 0.03 0.05 0.05 0.02 0.01 0.01 0.01 0.01 0.00 0.00 0.00 0.00 0.00 0.00 0.00 0.00 0.00 0.00 0.00 0.00 0.00 0.00 0.00 0.00 0.00 0.00
0.05 0.05 0.05 0.02 0.01 0.02 0.03 0.02 0.02 0.03 0.04 0.03 0.02 0.02 0.05 0.07 0.04 0.03 0.02 0.03 0.03 0.02 0.01 0.02 0.02 0.02 0.01 0.00 0.00 0.00 0.01 0.00 0.00 0.00 0.00 0.00 0.00 0.00 0.00 0.00 0.00 0.00 0.00 0.00
0.09 0.08 0.07 0.04 0.02 0.03 0.04 0.04 0.03 0.03 0.03 0.04 0.03 0.03 0.05 0.06 0.04 0.02 0.01 0.02 0.03 0.03 0.02 0.02 0.02 0.03 0.01 0.00 0.00 0.01 0.01 0.00 0.00 0.00 0.00 0.00 0.00 0.00 0.00 0.00 0.00 0.00 0.00 0.00
0.08 0.07 0.08 0.08 0.04 0.04 0.07 0.07 0.05 0.04 0.05 0.05 0.03 0.03 0.02 0.03 0.02 0.02 0.01 0.01 0.01 0.02 0.04 0.03 0.02 0.03 0.02 0.01 0.01 0.01 0.01 0.00 0.00 0.00 0.00 0.00 0.00 0.00 0.00 0.00 0.01 0.01 0.01 0.01
0.07 0.06 0.05 0.08 0.06 0.06 0.07 0.08 0.08 0.07 0.05 0.05 0.04 0.02 0.01 0.01 0.01 0.01 0.01 0.01 0.00 0.00 0.03 0.07 0.08 0.04 0.03 0.04 0.03 0.02 0.01 0.01 0.01 0.00 0.00 0.00 0.01 0.01 0.01 0.01 0.01 0.01 0.01 0.01
0.07 0.07 0.08 0.07 0.06 0.06 0.09 0.11 0.10 0.09 0.07 0.06 0.05 0.04 0.02 0.01 0.01 0.02 0.01 0.01 0.01 0.01 0.01 0.02 0.05 0.04 0.02 0.03 0.04 0.04 0.04 0.04 0.03 0.02 0.02 0.02 0.02 0.01 0.01 0.01 0.01 0.01 0.00 0.00
0.09 0.10 0.12 0.10 0.08 0.08 0.16 0.15 0.14 0.13 0.11 0.09 0.06 0.04 0.03 0.02 0.02 0.05 0.03 0.02 0.01 0.01 0.01 0.01 0.01 0.01 0.01 0.01 0.01 0.02 0.04 0.06 0.08 0.06 0.05 0.04 0.03 0.02 0.02 0.02 0.02 0.01 0.01 0.00
0.13 0.16 0.15 0.09 0.08 0.11 0.15 0.16 0.14 0.15 0.12 0.11 0.08 0.04 0.03 0.02 0.02 0.02 0.02 0.02 0.02 0.01 0.01 0.01 0.01 0.01 0.01 0.01 0.01 0.02 0.03 0.04 0.05 0.06 0.06 0.05 0.05 0.05 0.06 0.06 0.05 0.03 0.01 0.01
0.11 0.13 0.14 0.13 0.11 0.11 0.13 0.16 0.15 0.12 0.10 0.08 0.06 0.04 0.03 0.03 0.02 0.02 0.01 0.02 0.02 0.02 0.02 0.02 0.02 0.02 0.01 0.01 0.01 0.01 0.02 0.02 0.02 0.02 0.02 0.04 0.05 0.05 0.05 0.05 0.05 0.03 0.03 0.02
0.14 0.15 0.17 0.17 0.15 0.12 0.15 0.14 0.10 0.07 0.06 0.05 0.04 0.04 0.04 0.04 0.04 0.04 0.03 0.03 0.02 0.02 0.02 0.03 0.02 0.02 0.02 0.02 0.01 0.01 0.01 0.01 0.01 0.01 0.02 0.03 0.06 0.06 0.05 0.04 0.04 0.04 0.05 0.04
0.19 0.20 0.18 0.14 0.12 0.10 0.09 0.08 0.07 0.06 0.06 0.05 0.04 0.04 0.04 0.06 0.06 0.07 0.08 0.06 0.05 0.04 0.04 0.04 0.03 0.04 0.03 0.02 0.01 0.01 0.01 0.01 0.01 0.01 0.01 0.02 0.02 0.03 0.03 0.04 0.05 0.06 0.07 0.07
0.19 0.16 0.13 0.11 0.09 0.09 0.10 0.07 0.07 0.06 0.05 0.04 0.03 0.03 0.04 0.06 0.08 0.09 0.11 0.13 0.07 0.04 0.04 0.05 0.06 0.06 0.06 0.04 0.03 0.03 0.02 0.02 0.02 0.02 0.01 0.02 0.02 0.02 0.03 0.04 0.05 0.06 0.07 0.07
0.13 0.12 0.10 0.10 0.09 0.09 0.13 0.11 0.07 0.05 0.04 0.04 0.02 0.01 0.02 0.03 0.04 0.04 0.05 0.08 0.07 0.06 0.06 0.05 0.05 0.07 0.07 0.05 0.04 0.03 0.03 0.03 0.03 0.03 0.02 0.02 0.02 0.03 0.02 0.03 0.03 0.04 0.04 0.03
0.10 0.11 0.11 0.09 0.09 0.11 0.15 0.13 0.08 0.06 0.04 0.05 0.04 0.02 0.01 0.01 0.01 0.01 0.02 0.02 0.02 0.03 0.03 0.02 0.02 0.02 0.02 0.02 0.02 0.02 0.02 0.02 0.02 0.02 0.02 0.01 0.02 0.01 0.01 0.01 0.02 0.03 0.04 0.05
0.10 0.13 0.13 0.11 0.10 0.10 0.10 0.09 0.07 0.05 0.03 0.04 0.04 0.03 0.02 0.02 0.01 0.01 0.01 0.01 0.01 0.01 0.01 0.01 0.01 0.01 0.01 0.01 0.01 0.02 0.02 0.02 0.01 0.01 0.01 0.01 0.01 0.01 0.02 0.03 0.04 0.06 0.07 0.06
0.11 0.12 0.13 0.11 0.10 0.08 0.06 0.07 0.07 0.06 0.04 0.04 0.05 0.04 0.03 0.03 0.03 0.02 0.02 0.01 0.01 0.01 0.01 0.01 0.02 0.02 0.02 0.03 0.04 0.05 0.05 0.05 0.04 0.04 0.03 0.03 0.03 0.03 0.03 0.03 0.04 0.04 0.04 0.05
0.09 0.09 0.08 0.06 0.06 0.06 0.04 0.05 0.06 0.06 0.05 0.04 0.04 0.06 0.05 0.04 0.04 0.03 0.02 0.02 0.02 0.02 0.02 0.02 0.02 0.04 0.05 0.07 0.08 0.08 0.07 0.07 0.06 0.05 0.03 0.03 0.03 0.04 0.04 0.04 0.04 0.04 0.05 0.05
0.09 0.07 0.06 0.05 0.05 0.06 0.05 0.05 0.06 0.06 0.06 0.05 0.05 0.05 0.06 0.06 0.05 0.04 0.03 0.03 0.03 0.03 0.04 0.04 0.04 0.04 0.06 0.06 0.06 0.06 0.06 0.05 0.05 0.05 0.05 0.05 0.04 0.03 0.04 0.04 0.03 0.03 0.03 0.03
0.10 0.08 0.06 0.05 0.04 0.03 0.03 0.03 0.04 0.04 0.05 0.05 0.04 0.03 0.03 0.03 0.03 0.04 0.04 0.04 0.04 0.05 0.05 0.05 0.06 0.05 0.05 0.05 0.05 0.05 0.05 0.05 0.05 0.04 0.04 0.04 0.03 0.03 0.04 0.05 0.05 0.04 0.04 0.04
0.06 0.06 0.05 0.04 0.03 0.03 0.02 0.02 0.03 0.02 0.02 0.03 0.03 0.03 0.03 0.03 0.03 0.04 0.05 0.05 0.04 0.04 0.05 0.05 0.05 0.05 0.05 0.05 0.05 0.05 0.04 0.04 0.03 0.02 0.02 0.03 0.04 0.04 0.05 0.05 0.05 0.04 0.04 0.04
0.04 0.04 0.05 0.04 0.03 0.03 0.03 0.02 0.02 0.03 0.03 0.03 0.04 0.05 0.05 0.05 0.04 0.04 0.05 0.05 0.05 0.05 0.06 0.06 0.05 0.04 0.03 0.03 0.02 0.02 0.02 0.02 0.02 0.01 0.01 0.01 0.01 0.02 0.02 0.02 0.03 0.03 0.03 0.03
0.03 0.03 0.04 0.05 0.05 0.04 0.04 0.03 0.03 0.03 0.03 0.03 0.04 0.05 0.06 0.06 0.05 0.04 0.05 0.06 0.06 0.06 0.05 0.05 0.05 0.05 0.04 0.03 0.01 0.01 0.01 0.00 0.00 0.00 0.00 0.00 0.01 0.01 0.01 0.01 0.02 0.02 0.02 0.02
0.03 0.03 0.04 0.04 0.04 0.03 0.03 0.02 0.02 0.01 0.01 0.01 0.01 0.02 0.05 0.06 0.06 0.05 0.05 0.06 0.07 0.07 0.06 0.06 0.07 0.07 0.06 0.04 0.03 0.02 0.01 0.00 0.00 0.00 0.00 0.00 0.00 0.00 0.01 0.01 0.01 0.01 0.01 0.01
0.04 0.02 0.01 0.01 0.01 0.01 0.01 0.01 0.01 0.01 0.01 0.01 0.01 0.01 0.02 0.03 0.04 0.04 0.05 0.06 0.06 0.06 0.06 0.06 0.05 0.05 0.04 0.03 0.02 0.01 0.01 0.00 0.00 0.00 0.00 0.00 0.00 0.01 0.01 0.01 0.01 0.02 0.02 0.02
0.03 0.02 0.01 0.01 0.01 0.00 0.00 0.01 0.01 0.01 0.01 0.01 0.02 0.01 0.01 0.02 0.03 0.03 0.02 0.02 0.03 0.03 0.03 0.04 0.05 0.04 0.03 0.02 0.02 0.01 0.01 0.00 0.00 0.00 0.00 0.00 0.01 0.01 0.01 0.02 0.02 0.02 0.02 0.03
0.01 0.01 0.01 0.01 0.00 0.00 0.00 0.01 0.02 0.02 0.01 0.01 0.02 0.03 0.03 0.02 0.02 0.03 0.03 0.03 0.02 0.02 0.02 0.02 0.02 0.02 0.01 0.01 0.01 0.01 0.01 0.01 0.01 0.01 0.01 0.01 0.01 0.01 0.02 0.01 0.01 0.02 0.02 0.01
0.01 0.01 0.01 0.01 0.00 0.00 0.00 0.00 0.01 0.02 0.02 0.02 0.02 0.02 0.03 0.02 0.02 0.02 0.01 0.02 0.02 0.02 0.02 0.01 0.01 0.01 0.00 0.00 0.00 0.01 0.01 0.01 0.01 0.01 0.01 0.01 0.01 0.01 0.01 0.01 0.01 0.02 0.02 0.02
MSLP
1008.99 1009.21 1009.48 1009.79 1010.12 1010.43 1010.66 1010.76 1010.68 1010.41 1009.94 1009.32 1008.62 1007.92 1007.30 1006.85 1006.61 1006.61 1006.84 1007.27 1007.84 1008.51 1009.22 1009.92 1010.60 1011.25 1011.87 1012.46 1013.05 1013.63 1014.20 1014.77 1015.31 1015.82 1016.29 1016.70 1017.06 1017.37 1017.64 1017.87 1018.08 1018.28 1018.46 1018.64
1009.27 1009.39 1009.48 1009.56 1009.63 1009.68 1009.67 1009.59 1009.41 1009.11 1008.69 1008.19 1007.63 1007.08 1006.58 1006.20 1005.97 1005.92 1006.05 1006.35 1006.79 1007.35 1007.99 1008.68 1009.41 1010.14 1010.87 1011.60 1012.31 1013.00 1013.67 1014.29 1014.87 1015.40 1015.87 1016.29 1016.66 1016.99 1017.28 1017.54 1017.77 1017.99 1018.19 1018.38
1009.48 1009.49 1009.43 1009.32 1009.17 1009.00 1008.80 1008.57 1008.30 1007.97 1007.60 1007.18 1006.73 1006.28 1005.87 1005.52 1005.28 1005.16 1005.18 1005.36 1005.68 1006.15 1006.73 1007.41 1008.17 1008.98 1009.83 1010.68 1011.51 1012.31 1013.05 1013.73 1014.35 1014.89 1015.38 1015.80 1016.19 1016.53 1016.85 1017.14 1017.41 1017.65 1017.87 1018.05
1009.60 1009.51 1009.32 1009.05 1008.74 1008.40 1008.05 1007.71 1007.37 1007.02 1006.66 1006.29 1005.91 1005.53 1005.16 1004.82 1004.55 1004.36 1004.30 1004.37 1004.59 1004.98 1005.52 1006.20 1007.00 1007.88 1008.82 1009.77 1010.70 1011.59 1012.40 1013.13 1013.77 1014.33 1014.83 1015.27 1015.66 1016.03 1016.37 1016.69 1016.99 1017.25 1017.47 1017.65
1009.62 1009.43 1009.14 1008.76 1008.33 1007.87 1007.43 1007.00 1006.60 1006.22 1005.86 1005.51 1005.16 1004.80 1004.44 1004.10 1003.80 1003.56 1003.42 1003.42 1003.59 1003.93 1004.44 1005.13 1005.97 1006.91 1007.92 1008.95 1009.95 1010.90 1011.75 1012.51 1013.17 1013.74 1014.24 1014.69 1015.10 1015.48 1015.85 1016.19 1016.50 1016.77 1016.99 1017.16
1009.54 1009.27 1008.89 1008.43 1007.92 1007.39 1006.88 1006.38 1005.93 1005.52 1005.14 1004.77 1004.42 1004.06 1003.69 1003.34 1003.02 1002.76 1002.59 1002.56 1002.70 1003.03 1003.56 1004.27 1005.13 1006.12 1007.18 1008.25 1009.29 1010.26 1011.14 1011.91 1012.57 1013.14 1013.64 1014.09 1014.51 1014.90 1015.28 1015.63 1015.95 1016.22 1016.43 1016.58
1009.36 1009.01 1008.57 1008.06 1007.50 1006.92 1006.36 1005.81 1005.31 1004.85 1004.43 1004.03 1003.65 1003.27 1002.89 1002.53 1002.21 1001.95 1001.80 1001.79 1001.95 1002.30 1002.86 1003.60 1004.49 1005.51 1006.59 1007.68 1008.72 1009.69 1010.56 1011.32 1011.98 1012.54 1013.03 1013.48 1013.89 1014.29 1014.68 1015.03 1015.35 1015.61 1015.81 1015.93
1009.07 1008.65 1008.16 1007.62 1007.03 1006.43 1005.82 1005.24 1004.69 1004.17 1003.69 1003.24 1002.82 1002.41 1002.02 1001.67 1001.37 1001.15 1001.04 1001.09 1001.31 1001.72 1002.32 1003.10 1004.02 1005.05 1006.13 1007.20 1008.23 1009.18 1010.03 1010.76 1011.39 1011.94 1012.42 1012.86 1013.28 1013.67 1014.05 1014.40 1014.70 1014.95 1015.13 1015.24
1008.65 1008.18 1007.66 1007.09 1006.49 1005.87 1005.24 1004.61 1004.01 1003.44 1002.89 1002.38 1001.91 1001.47 1001.08 1000.75 1000.50 1000.34 1000.32 1000.45 1000.76 1001.25 1001.91 1002.73 1003.67 1004.70 1005.76 1006.81 1007.80 1008.71 1009.52 1010.23 1010.84 1011.37 1011.84 1012.27 1012.67 1013.06 1013.42 1013.75 1014.04 1014.27 1014.44 1014.53
1008.09 1007.58 1007.04 1006.47 1005.86 1005.23 1004.58 1003.93 1003.28 1002.65 1002.04 1001.48 1000.96 1000.50 1000.12 999.83 999.64 999.57 999.66 999.90 1000.30 1000.88 1001.60 1002.46 1003.42 1004.43 1005.46 1006.46 1007.41 1008.28 1009.05 1009.72 1010.31 1010.83 1011.29 1011.72 1012.11 1012.48 1012.82 1013.13 1013.40 1013.60 1013.75 1013.83
1007.38 1006.85 1006.30 1005.73 1005.14 1004.51 1003.86 1003.19 1002.51 1001.84 1001.19 1000.58 1000.04 999.58 999.22 998.98 998.87 998.91 999.10 999.46 999.97 1000.62 1001.40 1002.29 1003.24 1004.22 1005.21 1006.17 1007.06 1007.88 1008.62 1009.27 1009.85 1010.36 1010.82 1011.23 1011.62 1011.96 1012.28 1012.56 1012.79 1012.96 1013.09 1013.16
1006.52 1005.99 1005.45 1004.91 1004.35 1003.75 1003.12 1002.45 1001.77 1001.08 1000.41 999.79 999.25 998.81 998.50 998.32 998.31 998.45 998.75 999.21 999.81 1000.53 1001.35 1002.24 1003.17 1004.11 1005.04 1005.94 1006.78 1007.56 1008.26 1008.90 1009.47 1009.98 1010.43 1010.84 1011.21 1011.54 1011.82 1012.05 1012.24 1012.38 1012.48 1012.53
1005.56 1005.04 1004.55 1004.06 1003.55 1003.00 1002.42 1001.79 1001.13 1000.47 999.82 999.22 998.71 998.32 998.07 997.98 998.06 998.30 998.70 999.24 999.91 1000.66 1001.49 1002.36 1003.24 1004.13 1004.99 1005.81 1006.59 1007.32 1008.00 1008.61 1009.18 1009.69 1010.15 1010.55 1010.90 1011.20 1011.44 1011.62 1011.76 1011.86 1011.91 1011.95
1004.58 1004.10 1003.66 1003.24 1002.81 1002.35 1001.85 1001.30 1000.71 1000.10 999.52 998.98 998.54 998.22 998.06 998.06 998.22 998.55 999.03 999.63 1000.32 1001.08 1001.88 1002.70 1003.51 1004.31 1005.08 1005.82 1006.53 1007.20 1007.84 1008.44 1008.99 1009.50 1009.96 1010.35 1010.68 1010.94 1011.13 1011.27 1011.35 1011.38 1011.40 1011.40
1003.68 1003.25 1002.89 1002.57 1002.24 1001.89 1001.50 1001.06 1000.58 1000.07 999.59 999.15 998.80 998.58 998.51 998.60 998.85 999.25 999.77 1000.39 1001.08 1001.81 1002.54 1003.27 1003.98 1004.67 1005.33 1005.97 1006.59 1007.20 1007.78 1008.35 1008.89 1009.39 1009.83 1010.21 1010.52 1010.74 1010.88 1010.96 1010.98 1010.96 1010.93 1010.89
1002.97 1002.62 1002.35 1002.13 1001.93 1001.71 1001.46 1001.15 1000.80 1000.43 1000.06 999.75 999.52 999.40 999.43 999.60 999.91 1000.35 1000.90 1001.51 1002.16 1002.81 1003.45 1004.07 1004.65 1005.20 1005.73 1006.25 1006.77 1007.30 1007.82 1008.35 1008.86 1009.33 1009.76 1010.12 1010.39 1010.58 1010.68 1010.70 1010.67 1010.60 1010.51 1010.43
1002.56 1002.29 1002.12 1002.02 1001.95 1001.87 1001.76 1001.59 1001.39 1001.16 1000.93 1000.74 1000.63 1000.62 1000.73 1000.97 1001.32 1001.78 1002.31 1002.88 1003.46 1004.02 1004.54 1005.02 1005.45 1005.86 1006.25 1006.64 1007.05 1007.48 1007.93 1008.40 1008.87 1009.31 1009.71 1010.04 1010.28 1010.44 1010.50 1010.48 1010.40 1010.29 1010.16 1010.05
1002.51 1002.32 1002.25 1002.27 1002.32 1002.38 1002.40 1002.38 1002.31 1002.21 1002.11 1002.04 1002.03 1002.10 1002.28 1002.56 1002.94 1003.39 1003.88 1004.38 1004.86 1005.31 1005.70 1006.03 1006.32 1006.58 1006.83 1007.09 1007.38 1007.72 1008.09 1008.49 1008.91 1009.32 1009.68 1009.98 1010.20 1010.33 1010.36 1010.32 1010.21 1010.07 1009.92 1009.79
1002.85 1002.74 1002.77 1002.88 1003.04 1003.21 1003.35 1003.44 1003.48 1003.49 1003.49 1003.51 1003.57 1003.70 1003.91 1004.21 1004.57 1004.98 1005.41 1005.84 1006.22 1006.54 1006.81 1007.01 1007.16 1007.29 1007.41 1007.56 1007.75 1007.99 1008.29 1008.63 1009.00 1009.36 1009.69 1009.96 1010.16 1010.27 1010.29 1010.24 1010.12 1009.98 1009.82 1009.68
1003.53 1003.50 1003.60 1003.80 1004.04 1004.28 1004.50 1004.67 1004.79 1004.86 1004.92 1004.99 1005.08 1005.23 1005.45 1005.72 1006.05 1006.40 1006.76 1007.10 1007.39 1007.61 1007.77 1007.86 1007.91 1007.93 1007.96 1008.02 1008.13 1008.31 1008.54 1008.83 1009.15 1009.47 1009.77 1010.03 1010.21 1010.31 1010.33 1010.28 1010.18 1010.04 1009.89 1009.76
1004.47 1004.50 1004.67 1004.92 1005.20 1005.49 1005.75 1005.95 1006.10 1006.20 1006.27 1006.34 1006.44 1006.57 1006.75 1006.98 1007.25 1007.54 1007.83 1008.08 1008.29 1008.43 1008.51 1008.54 1008.52 1008.48 1008.46 1008.47 1008.53 1008.66 1008.86 1009.11 1009.39 1009.69 1009.97 1010.20 1010.38 1010.48 1010.51 1010.48 1010.39 1010.27 1010.15 1010.04
1005.57 1005.66 1005.87 1006.14 1006.45 1006.74 1006.99 1007.18 1007.32 1007.40 1007.45 1007.49 1007.54 1007.63 1007.75 1007.92 1008.12 1008.34 1008.56 1008.75 1008.90 1008.99 1009.03 1009.02 1008.98 1008.93 1008.90 1008.90 1008.95 1009.07 1009.25 1009.49 1009.75 1010.03 1010.30 1010.52 1010.69 1010.80 1010.84 1010.83 1010.77 1010.68 1010.57 1010.48
1006.76 1006.89 1007.11 1007.39 1007.68 1007.94 1008.15 1008.30 1008.39 1008.42 1008.41 1008.40 1008.38 1008.40 1008.46 1008.55 1008.68 1008.83 1008.99 1009.12 1009.24 1009.31 1009.34 1009.34 1009.32 1009.30 1009.29 1009.32 1009.40 1009.54 1009.73 1009.97 1010.23 1010.51 1010.76 1010.98 1011.16 1011.27 1011.32 1011.32 1011.28 1011.21 1011.13 1011.04
1007.97 1008.12 1008.34 1008.60 1008.84 1009.05 1009.20 1009.29 1009.31 1009.26 1009.19 1009.09 1009.00 1008.94 1008.92 1008.94 1009.00 1009.08 1009.19 1009.29 1009.38 1009.46 1009.51 1009.55 1009.57 1009.61 1009.66 1009.75 1009.88 1010.06 1010.28 1010.54 1010.81 1011.08 1011.34 1011.56 1011.73 1011.84 1011.91 1011.92 1011.89 1011.83 1011.75 1011.67
1009.18 1009.33 1009.53 1009.75 1009.93 1010.08 1010.15 1010.16 1010.10 1009.98 1009.82 1009.65 1009.49 1009.35 1009.25 1009.20 1009.19 1009.22 1009.28 1009.36 1009.44 1009.53 1009.61 1009.70 1009.79 1009.89 1010.02 1010.18 1010.38 1010.61 1010.87 1011.16 1011.44 1011.72 1011.98 1012.19 1012.36 1012.47 1012.53 1012.55 1012.52 1012.47 1012.39 1012.28
1010.37 1010.51 1010.68 1010.84 1010.96 1011.03 1011.03 1010.96 1010.83 1010.64 1010.41 1010.17 1009.94 1009.74 1009.57 1009.45 1009.38 1009.36 1009.37 1009.43 1009.51 1009.60 1009.72 1009.85 1010.01 1010.18 1010.38 1010.62 1010.88 1011.16 1011.46 1011.77 1012.08 1012.36 1012.61 1012.82 1012.98 1013.09 1013.14 1013.15 1013.12 1013.06 1012.96 1012.84
1011.55 1011.67 1011.80 1011.90 1011.95 1011.95 1011.88 1011.75 1011.55 1011.31 1011.03 1010.74 1010.46 1010.20 1009.97 1009.80 1009.68 1009.60 1009.58 1009.60 1009.67 1009.77 1009.90 1010.07 1010.27 1010.50 1010.76 1011.05 1011.36 1011.69 1012.03 1012.36 1012.67 1012.96 1013.20 1013.40 1013.54 1013.64 1013.68 1013.68 1013.63 1013.56 1013.44 1013.30
Thickness
5711 5720 5723 5725 5730 5732 5724 5719 5713 5723 5732 5748 5756 5762 5765 5766 5764 5762 5760 5759 5757 5754 5750 5747 5743 5739 5736 5732 5729 5726 5721 5716 5714 5711 5709 5706 5703 5701 5699 5698 5696 5694 5691 5689
5705 5718 5720 5723 5732 5733 5733 5733 5731 5735 5739 5759 5764 5766 5766 5766 5765 5762 5763 5763 5761 5758 5754 5750 5746 5742 5738 5734 5731 5727 5722 5718 5715 5712 5708 5705 5703 5700 5697 5695 5693 5691 5689 5687
5688 5706 5708 5705 5723 5729 5732 5738 5737 5732 5744 5757 5757 5762 5765 5767 5769 5768 5768 5768 5765 5762 5759 5756 5752 5748 5742 5738 5733 5728 5723 5719 5715 5712 5708 5705 5703 5699 5696 5693 5691 5689 5687 5686
5680 5687 5680 5708 5732 5735 5733 5737 5743 5746 5752 5758 5761 5766 5771 5772 5771 5771 5772 5771 5769 5766 5762 5759 5756 5751 5746 5740 5734 5728 5723 5720 5716 5712 5708 5704 5701 5698 5695 5692 5689 5687 5685 5684
5672 5673 5689 5710 5723 5726 5723 5726 5742 5743 5751 5759 5765 5763 5764 5773 5776 5776 5777 5776 5773 5771 5766 5762 5757 5752 5745 5738 5733 5728 5724 5720 5717 5713 5708 5704 5700 5697 5694 5691 5688 5686 5684 5682
5672 5672 5676 5701 5722 5732 5726 5713 5736 5741 5744 5751 5753 5739 5751 5771 5775 5775 5776 5775 5773 5770 5764 5760 5757 5752 5744 5737 5733 5729 5726 5723 5719 5714 5709 5704 5700 5697 5694 5691 5688 5685 5682 5680
5669 5670 5683 5707 5721 5726 5702 5708 5733 5738 5742 5745 5745 5750 5761 5770 5773 5774 5774 5774 5773 5768 5763 5760 5756 5750 5742 5736 5733 5732 5728 5723 5718 5713 5709 5705 5700 5696 5692 5689 5685 5682 5680 5678
5665 5665 5676 5708 5712 5707 5710 5724 5730 5736 5741 5744 5749 5756 5761 5766 5770 5772 5771 5771 5770 5765 5760 5758 5754 5748 5740 5736 5736 5731 5725 5720 5715 5712 5708 5704 5697 5693 5690 5686 5682 5678 5675 5673
5667 5673 5690 5701 5705 5713 5719 5721 5726 5732 5740 5744 5746 5750 5756 5760 5764 5768 5769 5768 5766 5762 5756 5753 5751 5747 5740 5737 5732 5727 5721 5716 5712 5708 5704 5701 5695 5690 5685 5682 5678 5675 5672 5669
5667 5677 5688 5697 5704 5711 5717 5720 5726 5732 5736 5740 5743 5747 5751 5754 5756 5759 5761 5762 5761 5756 5750 5746 5745 5743 5739 5734 5729 5723 5717 5712 5708 5703 5699 5696 5692 5688 5683 5679 5675 5672 5669 5666
5664 5674 5683 5692 5699 5706 5713 5719 5725 5729 5733 5736 5741 5742 5744 5746 5748 5751 5754 5755 5754 5749 5745 5741 5738 5735 5733 5729 5724 5718 5713 5709 5704 5700 5696 5691 5688 5686 5683 5680 5677 5672 5668 5665
5660 5670 5672 5681 5693 5702 5706 5711 5716 5719 5723 5729 5734 5735 5737 5738 5740 5742 5743 5744 5742 5740 5737 5734 5732 5728 5726 5723 5719 5713 5707 5703 5699 5695 5691 5687 5682 5679 5679 5677 5675 5672 5668 5665
5667 5672 5674 5682 5690 5697 5701 5706 5710 5713 5716 5719 5723 5728 5729 5729 5731 5733 5733 5734 5732 5730 5728 5726 5724 5720 5719 5717 5714 5708 5703 5698 5693 5689 5685 5681 5677 5673 5669 5669 5668 5666 5663 5660
5667 5669 5670 5677 5683 5691 5695 5700 5704 5706 5709 5713 5716 5718 5720 5720 5721 5722 5722 5723 5724 5722 5720 5717 5715 5712 5711 5709 5706 5701 5697 5692 5688 5683 5679 5675 5672 5668 5665 5661 5658 5658 5656 5653
5663 5666 5668 5674 5680 5684 5689 5692 5693 5694 5698 5702 5706 5708 5709 5709 5709 5710 5712 5714 5713 5711 5709 5707 5705 5703 5703 5701 5697 5693 5688 5684 5680 5676 5672 5669 5666 5662 5659 5656 5653 5650 5648 5647
5657 5661 5665 5668 5671 5675 5679 5681 5681 5683 5687 5690 5693 5695 5697 5698 5697 5698 5700 5702 5700 5697 5697 5696 5695 5695 5694 5692 5688 5683 5679 5677 5673 5668 5664 5661 5658 5655 5652 5649 5646 5643 5641 5639
5651 5652 5656 5658 5661 5665 5669 5671 5672 5674 5676 5678 5679 5682 5684 5684 5684 5684 5686 5688 5688 5686 5685 5685 5684 5685 5683 5681 5677 5673 5669 5666 5664 5660 5655 5652 5650 5647 5644 5641 5638 5635 5633 5631
5650 5651 5653 5654 5656 5658 5660 5662 5664 5664 5665 5667 5668 5669 5669 5668 5668 5670 5672 5674 5674 5672 5671 5672 5673 5672 5671 5669 5666 5662 5659 5656 5653 5649 5646 5643 5640 5638 5636 5632 5629 5625 5622 5620
5643 5645 5647 5648 5650 5650 5650 5652 5653 5654 5656 5656 5656 5655 5655 5655 5656 5657 5659 5660 5659 5656 5656 5660 5660 5659 5657 5656 5655 5652 5649 5646 5642 5638 5635 5633 5630 5628 5624 5621 5618 5615 5612 5609
5634 5636 5638 5639 5641 5641 5641 5642 5643 5644 5645 5646 5645 5644 5643 5643 5644 5645 5646 5644 5643 5644 5646 5648 5648 5646 5645 5644 5643 5640 5637 5634 5630 5627 5624 5621 5618 5614 5612 5609 5606 5603 5601 5598
5624 5626 5627 5628 5629 5631 5631 5632 5633 5632 5633 5634 5633 5632 5631 5632 5633 5634 5633 5630 5630 5633 5634 5635 5634 5633 5632 5632 5631 5628 5625 5621 5617 5614 5611 5608 5605 5602 5599 5597 5594 5591 5588 5585
5613 5615 5616 5617 5617 5618 5619 5621 5622 5622 5623 5623 5623 5623 5622 5621 5621 5620 5619 5618 5618 5620 5621 5620 5620 5619 5619 5618 5616 5613 5611 5608 5605 5602 5599 5596 5592 5589 5586 5583 5580 5577 5575 5572
5603 5605 5605 5606 5606 5607 5609 5611 5611 5612 5612 5612 5611 5611 5610 5608 5608 5607 5605 5606 5607 5608 5607 5607 5607 5607 5606 5604 5601 5598 5596 5593 5590 5588 5585 5581 5578 5575 5572 5569 5566 5563 5560 5557
5593 5594 5595 5596 5597 5598 5597 5599 5600 5601 5601 5600 5600 5599 5598 5597 5596 5595 5596 5597 5597 5596 5595 5594 5594 5593 5591 5588 5585 5583 5580 5577 5575 5572 5569 5566 5563 5560 5557 5554 5552 5549 5546 5543
5583 5584 5585 5586 5585 5585 5586 5588 5589 5588 5588 5587 5587 5587 5586 5586 5584 5584 5585 5585 5584 5583 5581 5581 5579 5577 5574 5572 5570 5566 5563 5561 5559 5557 5554 5551 5548 5545 5543 5540 5538 5536 5533 5530
5574 5574 5574 5574 5574 5575 5576 5576 5575 5574 5574 5573 5573 5574 5574 5574 5573 5572 5571 5571 5570 5568 5566 5564 5563 5561 5558 5556 5554 5551 5548 5546 5543 5541 5538 5536 5533 5531 5528 5526 5524 5522 5519 5517
5564 5564 5564 5564 5564 5565 5564 5563 5562 5561 5561 5560 5560 5560 5561 5561 5560 5559 5558 5556 5554 5553 5551 5549 5547 5545 5543 5541 5539 5536 5533 5531 5529 5526 5523 5521 5519 5517 5515 5513 5511 5509 5507 5505